Harrisburg, IL

2:12 AM CST on December 13, 2019 (GMT -0600)
Harrisburg-Raleigh

Weather History for KHSB - November, 2019

Change the Weather History Date:

Tuesday, November 12, 2019

  Actual Average (WUND) Record (WUND)
Temperature  
Mean Temperature 16 °F -  
Max Temperature 22 °F - - (-1)
Min Temperature 9 °F - - (-1)
Degree Days  
Heating Degree Days 50    
Moisture  
Dew Point 4 °F    
Average Humidity 61    
Maximum Humidity 88    
Minimum Humidity 38    
Precipitation  
Precipitation 0.00 in - - ()
Sea Level Pressure  
Sea Level Pressure 30.54 in    
Wind  
Wind Speed 9 mph ()    
Max Wind Speed 17 mph    
Max Gust Speed 28 mph    
Visibility 10.0 miles    
Events      
Averages and records for this station are not official NWS values.
T = Trace of Precipitation, MM = Missing Value Source: Averaged Metar Reports

Daily Weather History Graph

Daily Weather History Graph

Search for Another Location

Airport or City:

Astronomy

Nov. 12, 2019 Rise Set
Actual Time 6:31 AM CST 4:45 PM CST
Civil Twilight 6:03 AM CST 5:12 PM CST
Nautical Twilight 5:31 AM CST 5:44 PM CST
Astronomical Twilight 5:00 AM CST 6:15 PM CST
Moon 5:11 PM CST (11/12) 6:23 AM CST (11/12)
Length of Visible Light 11h 09m
Length of Day
10h 14m
Full, 100% of the Moon is Illuminated
Nov 12
Full
Nov 19
Last Quarter
Nov 26
New
Dec 4
First Quarter
Dec 11
Full

Hourly Weather History & Observations

Time (CST) Temp. Windchill Dew Point Humidity Pressure Visibility Wind Dir Wind Speed Gust Speed Precip Events Conditions
12:15 AM 20.5 °F 6.4 °F 8.6 °F 60% 30.46 in 10.0 mi North 16.1 mph 27.6 mph N/A   Overcast
12:35 AM 19.4 °F 4.5 °F 8.6 °F 63% 30.46 in 10.0 mi NNW 17.3 mph 23.0 mph N/A   Scattered Clouds
12:55 AM 18.7 °F 6.3 °F 7.3 °F 61% 30.47 in 10.0 mi NNW 11.5 mph 25.3 mph N/A   Clear
1:15 AM 18.0 °F 5.4 °F 6.8 °F 62% 30.47 in 10.0 mi NNW 11.5 mph 20.7 mph N/A   Clear
1:35 AM 17.4 °F 4.7 °F 6.8 °F 63% 30.48 in 10.0 mi NNW 11.5 mph 21.9 mph N/A   Clear
1:55 AM 17.1 °F 2.5 °F 6.4 °F 63% 30.49 in 10.0 mi NNW 15.0 mph 20.7 mph N/A   Clear
2:35 AM 16.3 °F 2.7 °F 5.9 °F 64% 30.49 in 10.0 mi NNW 12.7 mph - N/A   Clear
2:55 AM 15.8 °F 5.1 °F 5.5 °F 64% 30.50 in 10.0 mi NNW 8.1 mph 13.8 mph N/A   Clear
3:15 AM 15.4 °F 3.0 °F 5.0 °F 63% 30.50 in 10.0 mi NNW 10.4 mph - N/A   Clear
3:35 AM 15.3 °F 2.8 °F 4.8 °F 63% 30.51 in 10.0 mi NNW 10.4 mph 17.3 mph N/A   Clear
3:55 AM 14.9 °F 2.3 °F 4.5 °F 63% 30.51 in 10.0 mi NNW 10.4 mph 17.3 mph N/A   Clear
4:15 AM 14.7 °F 1.4 °F 4.5 °F 64% 30.52 in 10.0 mi NNW 11.5 mph - N/A   Clear
4:35 AM 14.4 °F 2.4 °F 4.1 °F 64% 30.53 in 10.0 mi NNW 9.2 mph 17.3 mph N/A   Clear
4:55 AM 14.0 °F 2.0 °F 3.7 °F 64% 30.53 in 10.0 mi NNW 9.2 mph - N/A   Clear
5:15 AM 13.6 °F 0.7 °F 3.7 °F 65% 30.54 in 10.0 mi NNW 10.4 mph - N/A   Clear
5:35 AM 13.1 °F 0.1 °F 3.2 °F 65% 30.54 in 10.0 mi NNW 10.4 mph - N/A   Clear
5:55 AM 12.9 °F 1.6 °F 3.0 °F 65% 30.54 in 10.0 mi NNW 8.1 mph - N/A   Clear
6:15 AM 12.6 °F 2.2 °F 2.5 °F 64% 30.56 in 10.0 mi NNW 6.9 mph - N/A   Clear
6:35 AM 12.2 °F 1.7 °F 2.3 °F 65% 30.56 in 10.0 mi NNW 6.9 mph - N/A   Clear
6:55 AM 12.2 °F -0.2 °F 2.3 °F 65% 30.57 in 10.0 mi NNW 9.2 mph - N/A   Clear
7:15 AM 12.7 °F 2.4 °F 2.3 °F 63% 30.57 in 10.0 mi NNW 6.9 mph - N/A   Clear
7:35 AM 13.1 °F 1.8 °F 2.3 °F 62% 30.58 in 10.0 mi NNW 8.1 mph - N/A   Clear
7:55 AM 13.8 °F 1.0 °F 2.8 °F 62% 30.59 in 10.0 mi NNW 10.4 mph - N/A   Clear
8:15 AM 14.4 °F -0.4 °F 2.5 °F 59% 30.60 in 10.0 mi NNW 13.8 mph 17.3 mph N/A   Clear
8:35 AM 14.7 °F 0.7 °F 2.1 °F 57% 30.60 in 10.0 mi NNW 12.7 mph 16.1 mph N/A   Clear
8:55 AM 15.6 °F 2.5 °F 3.0 °F 58% 30.61 in 10.0 mi North 11.5 mph 18.4 mph N/A   Clear
9:15 AM 16.0 °F 2.3 °F 3.2 °F 57% 30.61 in 10.0 mi North 12.7 mph 17.3 mph N/A   Clear
9:35 AM 16.5 °F 3.0 °F 2.3 °F 54% 30.61 in 10.0 mi North 12.7 mph - N/A   Clear
9:55 AM 16.9 °F 3.4 °F 1.9 °F 52% 30.61 in 10.0 mi North 12.7 mph 16.1 mph N/A   Clear
10:15 AM 17.6 °F 5.0 °F 2.5 °F 52% 30.61 in 10.0 mi NNW 11.5 mph - N/A   Clear
10:35 AM 18.1 °F 6.3 °F 1.8 °F 49% 30.60 in 10.0 mi North 10.4 mph 16.1 mph N/A   Clear
10:55 AM 18.9 °F 8.8 °F 1.6 °F 47% 30.60 in 10.0 mi NNW 8.1 mph - N/A   Clear
11:35 AM 19.9 °F 7.9 °F 2.3 °F 46% 30.59 in 10.0 mi NNW 11.5 mph 16.1 mph N/A   Clear
11:55 AM 19.9 °F 7.9 °F 0.5 °F 43% 30.58 in 10.0 mi NNW 11.5 mph 16.1 mph N/A   Clear
12:15 PM 20.7 °F 9.5 °F 1.4 °F 43% 30.58 in 10.0 mi North 10.4 mph 16.1 mph N/A   Clear
12:35 PM 21.0 °F 8.6 °F 1.9 °F 44% 30.57 in 10.0 mi North 12.7 mph - N/A   Clear
12:55 PM 21.0 °F 8.6 °F 0.9 °F 42% 30.57 in 10.0 mi NNW 12.7 mph - N/A   Clear
1:15 PM 21.7 °F 10.8 °F 3.0 °F 45% 30.56 in 10.0 mi North 10.4 mph 16.1 mph N/A   Clear
1:35 PM 21.9 °F 13.4 °F 2.1 °F 42% 30.55 in 10.0 mi North 6.9 mph - N/A   Clear
1:55 PM 22.1 °F 11.3 °F 2.5 °F 43% 30.54 in 10.0 mi North 10.4 mph - N/A   Clear
2:15 PM 22.1 °F 14.7 °F 1.4 °F 41% 30.54 in 10.0 mi NNE 5.8 mph - N/A   Clear
2:35 PM 22.1 °F 12.0 °F 1.4 °F 41% 30.53 in 10.0 mi North 9.2 mph - N/A   Clear
2:55 PM 22.1 °F 13.7 °F 0.7 °F 39% 30.53 in 10.0 mi North 6.9 mph - N/A   Clear
3:15 PM 21.9 °F 12.5 °F -0.2 °F 38% 30.52 in 10.0 mi North 8.1 mph - N/A   Clear
3:35 PM 21.9 °F 13.4 °F 0.3 °F 39% 30.52 in 10.0 mi North 6.9 mph - N/A   Clear
3:55 PM 21.7 °F 13.2 °F 1.6 °F 42% 30.52 in 10.0 mi North 6.9 mph - N/A   Clear
4:15 PM 21.0 °F 11.4 °F 1.6 °F 43% 30.53 in 10.0 mi North 8.1 mph - N/A   Clear
4:35 PM 20.3 °F 11.5 °F 1.0 °F 43% 30.53 in 10.0 mi North 6.9 mph - N/A   Clear
4:55 PM 18.9 °F 12.1 °F 1.9 °F 48% 30.53 in 10.0 mi North 4.6 mph - N/A   Clear
5:15 PM 17.4 °F 12.1 °F 3.0 °F 53% 30.53 in 10.0 mi North 3.5 mph - N/A   Clear
5:35 PM 17.1 °F 11.7 °F 4.1 °F 57% 30.54 in 10.0 mi North 3.5 mph - N/A   Clear
5:55 PM 16.5 °F 9.4 °F 3.9 °F 58% 30.54 in 10.0 mi North 4.6 mph - N/A   Clear
6:15 PM 15.8 °F 10.2 °F 5.5 °F 64% 30.54 in 10.0 mi NNE 3.5 mph - N/A   Clear
6:35 PM 14.9 °F - 6.4 °F 69% 30.54 in 10.0 mi Calm Calm - N/A   Clear
6:55 PM 15.6 °F - 5.5 °F 64% 30.54 in 10.0 mi Calm Calm - N/A   Clear
7:15 PM 14.2 °F - 6.8 °F 73% 30.53 in 10.0 mi Calm Calm - N/A   Clear
7:35 PM 13.8 °F - 6.4 °F 72% 30.53 in 10.0 mi Calm Calm - N/A   Clear
7:55 PM 11.8 °F - 7.2 °F 81% 30.52 in 10.0 mi Calm Calm - N/A   Clear
8:15 PM 12.9 °F - 8.1 °F 81% 30.52 in 10.0 mi Calm Calm - N/A   Clear
8:35 PM 11.8 °F - 7.2 °F 81% 30.52 in 10.0 mi Calm Calm - N/A   Clear
8:55 PM 11.5 °F - 6.8 °F 81% 30.52 in 10.0 mi Calm Calm - N/A   Clear
9:15 PM 10.9 °F - 6.6 °F 83% 30.51 in 10.0 mi Calm Calm - N/A   Clear
9:35 PM 10.4 °F - 6.3 °F 83% 30.51 in 10.0 mi Calm Calm - N/A   Clear
9:55 PM 10.6 °F - 7.5 °F 87% 30.50 in 10.0 mi Calm Calm - N/A   Clear
10:15 PM 10.9 °F - 7.3 °F 85% 30.50 in 10.0 mi Calm Calm - N/A   Clear
10:35 PM 9.5 °F - 6.3 °F 87% 30.50 in 10.0 mi Calm Calm - N/A   Clear
10:55 PM 10.4 °F - 7.0 °F 86% 30.50 in 10.0 mi Calm Calm - N/A   Clear
11:15 PM 10.0 °F - 6.6 °F 86% 30.49 in 10.0 mi Calm Calm - N/A   Clear
11:35 PM 10.2 °F - 7.3 °F 88% 30.49 in 10.0 mi Calm Calm - N/A   Clear
11:55 PM 9.9 °F - 7.0 °F 88% 30.48 in 10.0 mi Calm Calm - N/A   Clear